• In Moldova, Republic
  • List of Countries
  • For 7 days
  • Water Temperature
  • Satellite Maps
  • Weather Map
  • Weather Widgets
  • user-avatar
    Login

    Hourly Weather Ali Bayramli

    Today, 21 November, Tuesday

    Time Temperature Precipitation Wind Pressure Humidity
    00:00 +15°C° 0 mm 2 mps 756 mmHg 49%
    01:00 +15°C° 0 mm 2 mps 756 mmHg 48%
    02:00 +14°C° 0 mm 3 mps 755 mmHg 47%
    03:00 +14°C° 0 mm 3 mps 755 mmHg 47%
    04:00 +14°C° 0 mm 3 mps 755 mmHg 46%
    05:00 +13°C° 0 mm 3 mps 754 mmHg 46%
    06:00 +13°C° 0 mm 3 mps 754 mmHg 45%
    07:00 +14°C° 0 mm 3 mps 754 mmHg 43%
    08:00 +16°C° 0 mm 3 mps 754 mmHg 40%
    09:00 +18°C° 0 mm 3 mps 753 mmHg 37%
    10:00 +19°C° 0 mm 3 mps 753 mmHg 35%
    11:00 +20°C° 0 mm 3 mps 752 mmHg 32%
    12:00 +21°C° 0 mm 4 mps 752 mmHg 30%
    13:00 +22°C° 0 mm 3 mps 752 mmHg 30%
    14:00 +22°C° 0 mm 3 mps 751 mmHg 30%
    15:00 +22°C° 0 mm 3 mps 751 mmHg 30%
    16:00 +21°C° 0 mm 3 mps 751 mmHg 33%
    17:00 +20°C° 0 mm 3 mps 751 mmHg 35%
    18:00 +18°C° 0 mm 3 mps 750 mmHg 38%
    19:00 +18°C° 0 mm 3 mps 750 mmHg 38%
    20:00 +17°C° 0 mm 3 mps 750 mmHg 39%
    21:00 +17°C° 0 mm 3 mps 750 mmHg 40%
    22:00 +17°C° 0 mm 3 mps 749 mmHg 40%
    23:00 +16°C° 0 mm 3 mps 749 mmHg 40%

    Tomorrow, 22 November, Wednesday

    Time Temperature Precipitation Wind Pressure Humidity
    00:00 +16°C° 0 mm 3 mps 749 mmHg 40%
    01:00 +14°C° 0 mm 3 mps 748 mmHg 40%
    02:00 +14°C° 0 mm 3 mps 748 mmHg 40%
    03:00 +14°C° 0 mm 3 mps 748 mmHg 40%
    04:00 +14°C° 0 mm 4 mps 748 mmHg 40%
    05:00 +14°C° 0 mm 4 mps 749 mmHg 40%
    06:00 +13°C° 0 mm 5 mps 749 mmHg 41%
    07:00 +14°C° 0 mm 5 mps 750 mmHg 43%
    08:00 +14°C° 0 mm 5 mps 750 mmHg 45%
    09:00 +15°C° 0 mm 5 mps 751 mmHg 47%
    10:00 +15°C° 0 mm 5 mps 752 mmHg 47%
    11:00 +16°C° 0 mm 5 mps 752 mmHg 47%
    12:00 +16°C° 0 mm 5 mps 752 mmHg 47%
    13:00 +16°C° 0 mm 6 mps 753 mmHg 47%
    14:00 +16°C° 0 mm 6 mps 753 mmHg 47%
    15:00 +16°C° 0 mm 6 mps 754 mmHg 47%
    16:00 +14°C° 0.6 mm 6 mps 754 mmHg 52%
    17:00 +13°C° 0.6 mm 6 mps 755 mmHg 58%
    18:00 +11°C° 0.6 mm 7 mps 756 mmHg 63%
    19:00 +11°C° 0.1 mm 6 mps 756 mmHg 63%
    20:00 +11°C° 0.1 mm 6 mps 757 mmHg 63%
    21:00 +10°C° 0.1 mm 6 mps 757 mmHg 62%
    22:00 +10°C° 0 mm 6 mps 757 mmHg 63%
    23:00 +10°C° 0 mm 6 mps 757 mmHg 63%

    Day after tomorrow, 23 November, Thursday

    Time Temperature Precipitation Wind Pressure Humidity
    00:00 +9°C° 0 mm 6 mps 757 mmHg 63%
    01:00 +9°C° 0.1 mm 6 mps 758 mmHg 64%
    02:00 +9°C° 0.1 mm 6 mps 758 mmHg 66%
    03:00 +8°C° 0.1 mm 6 mps 758 mmHg 67%
    04:00 +8°C° 0.3 mm 6 mps 758 mmHg 68%
    05:00 +8°C° 0.3 mm 5 mps 758 mmHg 70%
    06:00 +7°C° 0.3 mm 5 mps 758 mmHg 71%
    07:00 +7°C° 0.4 mm 5 mps 759 mmHg 71%
    08:00 +7°C° 0.4 mm 5 mps 759 mmHg 72%
    09:00 +7°C° 0.4 mm 4 mps 759 mmHg 72%
    10:00 +7°C° 0.6 mm 4 mps 759 mmHg 73%
    11:00 +8°C° 0.6 mm 3 mps 759 mmHg 74%
    12:00 +7°C° 0.6 mm 3 mps 759 mmHg 75%
    13:00 +8°C° 0.2 mm 2 mps 759 mmHg 72%
    14:00 +8°C° 0.2 mm 2 mps 759 mmHg 70%
    15:00 +9°C° 0.2 mm 1 mps 759 mmHg 68%
    16:00 +9°C° 0 mm 1 mps 759 mmHg 70%
    17:00 +9°C° 0 mm 1 mps 760 mmHg 72%
    18:00 +8°C° 0 mm 1 mps 760 mmHg 75%
    19:00 +8°C° 0 mm 1 mps 760 mmHg 74%
    20:00 +8°C° 0 mm 1 mps 760 mmHg 74%
    21:00 +7°C° 0 mm 2 mps 761 mmHg 74%
    22:00 +7°C° 0 mm 2 mps 761 mmHg 73%
    23:00 +7°C° 0 mm 3 mps 761 mmHg 72%

    24 November, Friday

    Time Temperature Precipitation Wind Pressure Humidity
    00:00 +7°C° 0 mm 3 mps 761 mmHg 71%
    01:00 +7°C° 0 mm 3 mps 761 mmHg 68%
    02:00 +5°C° 0 mm 3 mps 761 mmHg 64%
    03:00 +5°C° 0 mm 4 mps 762 mmHg 60%
    04:00 +5°C° 0 mm 4 mps 762 mmHg 58%
    05:00 +5°C° 0 mm 4 mps 762 mmHg 56%
    06:00 +5°C° 0 mm 3 mps 762 mmHg 54%
    07:00 +7°C° 0.1 mm 3 mps 763 mmHg 53%
    08:00 +7°C° 0.1 mm 3 mps 763 mmHg 52%
    09:00 +7°C° 0.1 mm 3 mps 764 mmHg 51%
    10:00 +8°C° 0.1 mm 3 mps 763 mmHg 48%
    11:00 +8°C° 0.1 mm 3 mps 763 mmHg 45%
    12:00 +9°C° 0.1 mm 3 mps 763 mmHg 43%
    13:00 +9°C° 0 mm 3 mps 763 mmHg 40%
    14:00 +9°C° 0 mm 2 mps 763 mmHg 38%
    15:00 +9°C° 0 mm 2 mps 763 mmHg 36%
    16:00 +9°C° 0 mm 2 mps 763 mmHg 37%
    17:00 +9°C° 0 mm 2 mps 764 mmHg 39%
    18:00 +8°C° 0 mm 2 mps 764 mmHg 40%
    19:00 +8°C° 0 mm 3 mps 764 mmHg 41%
    20:00 +8°C° 0 mm 3 mps 764 mmHg 43%
    21:00 +8°C° 0 mm 3 mps 765 mmHg 44%
    22:00 +7°C° 0 mm 3 mps 765 mmHg 44%
    23:00 +7°C° 0 mm 3 mps 765 mmHg 45%

    25 November, Saturday

    Time Temperature Precipitation Wind Pressure Humidity
    00:00 +7°C° 0 mm 3 mps 765 mmHg 45%
    01:00 +7°C° 0 mm 3 mps 765 mmHg 46%
    02:00 +5°C° 0 mm 3 mps 765 mmHg 46%
    03:00 +5°C° 0 mm 3 mps 765 mmHg 47%
    04:00 +5°C° 0 mm 3 mps 765 mmHg 47%
    05:00 +5°C° 0 mm 3 mps 766 mmHg 46%
    06:00 +5°C° 0 mm 3 mps 766 mmHg 46%
    07:00 +5°C° 0 mm 3 mps 767 mmHg 42%
    08:00 +5°C° 0 mm 4 mps 767 mmHg 39%
    09:00 +6°C° 0 mm 5 mps 768 mmHg 35%
    10:00 +7°C° 0 mm 5 mps 768 mmHg 34%
    11:00 +7°C° 0 mm 6 mps 768 mmHg 32%
    12:00 +8°C° 0 mm 7 mps 768 mmHg 31%
    13:00 +8°C° 0 mm 7 mps 768 mmHg 33%
    14:00 +8°C° 0 mm 6 mps 768 mmHg 34%
    15:00 +9°C° 0 mm 6 mps 768 mmHg 36%
    16:00 +8°C° 0.1 mm 6 mps 769 mmHg 42%
    17:00 +7°C° 0.1 mm 5 mps 769 mmHg 48%
    18:00 +7°C° 0.1 mm 5 mps 770 mmHg 53%
    19:00 +7°C° 0 mm 4 mps 770 mmHg 54%
    20:00 +7°C° 0 mm 3 mps 771 mmHg 55%
    21:00 +7°C° 0 mm 3 mps 771 mmHg 56%
    22:00 +7°C° 0 mm 2 mps 771 mmHg 56%
    23:00 +6°C° 0 mm 2 mps 771 mmHg 56%

    26 November, Sunday

    Time Temperature Precipitation Wind Pressure Humidity
    00:00 +6°C° 0 mm 2 mps 772 mmHg 56%
    01:00 +6°C° 0 mm 2 mps 772 mmHg 56%
    02:00 +5°C° 0 mm 2 mps 772 mmHg 55%
    03:00 +5°C° 0 mm 2 mps 771 mmHg 54%
    04:00 +4°C° 0 mm 2 mps 772 mmHg 54%
    05:00 +4°C° 0 mm 2 mps 772 mmHg 54%
    06:00 +5°C° 0 mm 1 mps 772 mmHg 53%
    07:00 +6°C° 0 mm 1 mps 772 mmHg 49%
    08:00 +7°C° 0 mm 1 mps 772 mmHg 45%
    09:00 +7°C° 0 mm 1 mps 772 mmHg 41%
    10:00 +8°C° 0 mm 1 mps 771 mmHg 38%
    11:00 +8°C° 0 mm 2 mps 771 mmHg 35%
    12:00 +9°C° 0 mm 2 mps 771 mmHg 33%
    13:00 +9°C° 0 mm 2 mps 770 mmHg 32%
    14:00 +9°C° 0 mm 2 mps 770 mmHg 32%
    15:00 +9°C° 0 mm 2 mps 770 mmHg 32%
    16:00 +10°C° 0 mm 1 mps 770 mmHg 35%
    17:00 +9°C° 0 mm 1 mps 770 mmHg 38%
    18:00 +8°C° 0 mm 1 mps 770 mmHg 41%
    19:00 +8°C° 0 mm 1 mps 770 mmHg 41%
    20:00 +8°C° 0 mm 1 mps 770 mmHg 40%
    21:00 +6°C° 0 mm 2 mps 770 mmHg 40%
    22:00 +6°C° 0 mm 2 mps 770 mmHg 39%
    23:00 +6°C° 0 mm 2 mps 770 mmHg 39%
    Show more